Location: Beccas
(43.4309°N, 0.1528°E)
Time: 23:34:35
(UTC+00:00)

SL-16 R/B - Pass Details

Date: 15 October 2021
Orbit: 842 x 846 km, 71.0° (Epoch: 26 November)

Event Time Altitude Azimuth Distance (km) Brightness Sun altitude
Rises 19:59:15 0° 204° (SSW) 3,385 5.4 -30.1°
Reaches altitude 10° 20:01:41 10° 205° (SSW) 2,455 4.7 -30.6°
Enters shadow 20:03:11 19° 206° (SSW) 1,896 4.0 -30.8°
